Regional Weather Roundup
Issued by NWS

Home | Current Version | Previous Version | Text Only | Print | Product List | Glossary Off
Versions: 1 2 3 4 5 6 7 8 9 10 11 12 13 14 15 16 17 18 19 20 21 22 23 24 25 26 27 28 29 30 31 32 33 34 35 36 37 38 39 40 41 42 43 44 45 46 47 48 49 50

000
ASUS43 KMKX 231311
RWRWI

WISCONSIN REGIONAL WEATHER ROUNDUP
NATIONAL WEATHER SERVICE MILWAUKEE/SULLIVAN WI
800 AM CDT THU OCT 23 2014

NOTE: "FAIR" INDICATES FEW OR NO CLOUDS BELOW 12,000 FEET WITH NO
SIGNIFICANT WEATHER AND/OR OBSTRUCTIONS TO VISIBILITY.

WIZ001-002-006>008-014>016-023>028-231400-
NORTHWEST WISCONSIN

CITY           SKY/WX    TMP DP  RH WIND       PRES   REMARKS
SUPERIOR ARPT  CLOUDY    47  47  99 CALM      29.97S
ASHLAND        LGT RAIN  47  46  97 S3        30.00S FOG
HAYWARD        CLOUDY    47  44  90 S6        30.00F
SIREN          CLOUDY    48  47  96 S7        29.99R FOG
CUMBERLAND     CLOUDY    45  45 100 S3        30.00S FOG
RICE LAKE      DRIZZLE   47  44  89 SE7       30.02F
CHETEK         CLOUDY    46  45  95 SE6       30.02S
LADYSMITH      RAIN      46  44  93 S7        30.05S
EAU CLAIRE     LGT RAIN  47  45  93 S6        30.02F FOG
MENOMONIE      LGT RAIN  48  47  97 CALM      30.02F
NEW RICHMOND   CLOUDY    49  49  98 S5        30.00S FOG
OSCEOLA        CLOUDY    50  50 100 S5        30.02S
$$

WIZ003>005-009-010-017-018-231400-
NORTH CENTRAL WISCONSIN

CITY           SKY/WX    TMP DP  RH WIND       PRES   REMARKS
MANITOWISH WTR CLOUDY    43  40  91 S8        30.03F
ARBOR VITAE    DRIZZLE   43  41  91 S9        30.04F
WOODRUFF       DRIZZLE   43  41  91 S9        30.04F
RHINELANDER    CLOUDY    42  40  92 S6        30.07F
EAGLE RIVER    RAIN      42  37  79 S5        30.06S
LAND O LAKES   CLOUDY    45  37  76 S5        30.06S
PHILLIPS       DRIZZLE   44  40  88 S8        30.03S
TOMAHAWK       CLOUDY    41  39  95 CALM      30.07S FOG
MEDFORD        DRIZZLE   41  39  92 SE10      30.05F
MERRILL        CLOUDY    41  41  97 S3        30.08F
$$

WIZ029-030-035-036-043>047-231400-
CENTRAL WISCONSIN

CITY           SKY/WX    TMP DP  RH WIND       PRES   REMARKS
WAUSAU         LGT RAIN  42  39  89 SE8       30.09S
MOSINEE        CLOUDY    41  41 100 S7        30.10F
MARSHFIELD     CLOUDY    44  40  85 S7        30.07F
STEVENS POINT  CLOUDY    39  37  91 S7        30.11F WCI  34
WAUPACA        CLOUDY    37  36  96 CALM      30.15S FOG
WAUTOMA        MOCLDY    37  35  92 CALM      30.14F FOG
WISC RAPIDS    CLOUDY    42  39  89 S5        30.11F
CAMP DOUGLAS   CLOUDY    48  41  76 S9        30.08F
$$

WIZ011>013-019>022-031-037>040-048>050-231400-
NORTHEAST WISCONSIN

CITY           SKY/WX    TMP DP  RH WIND       PRES   REMARKS
ANTIGO         LGT RAIN  37  37  97 S8        30.10S WCI  31
SHAWANO        FOG       33  32  95 CALM      30.15F VSB 1
OCONTO           N/A     30  30 100 CALM      30.16S VSB 3/4
STURGEON BAY   CLEAR     41  37  87 S8        30.18S
GREEN BAY      CLEAR     39  35  86 S7        30.16F WCI  34
MANITOWOC      CLEAR     41  39  93 S8        30.19S
APPLETON       PTCLDY    39  36  87 S8        30.16S WCI  34
CLINTONVILLE   PTCLDY    32  32 100 CALM      30.14F FOG
OSHKOSH        PTCLDY    38  35  89 S10       30.15F WCI  31
$$

WIZ032>034-041-042-053>061-231400-
SOUTHWEST WISCONSIN

CITY           SKY/WX    TMP DP  RH WIND       PRES   REMARKS
LA CROSSE      CLOUDY    50  46  86 S8        30.05F
SPARTA         RAIN      47  43  85 SE3       30.07F
VIROQUA        CLOUDY    45  43  93 SE7       30.06F
BOSCOBEL       CLOUDY    49  38  65 CALM      30.10F
PRAIRIE DU CHI DRIZZLE   50  39  66 SE3       30.08F
PLATTEVILLE    CLOUDY    45  38  78 SE8       30.12S
$$

WIZ056-057-062-063-064-067-068-231400-
SOUTH CENTRAL WISCONSIN

CITY           SKY/WX    TMP DP  RH WIND       PRES   REMARKS
REEDSBURG      CLOUDY    45  37  72 S6        30.11S
BARABOO/DELLS  CLOUDY    44  35  69 S8        30.12S
LONE ROCK      CLOUDY    49  37  63 E9        30.12F
MINERAL POINT  CLOUDY    45  36  70 SE10      30.12S
MADISON        MOCLDY    41  36  82 S9        30.16F
MIDDLETON      MOCLDY    44  35  71 S7        30.15F
WATERTOWN      CLEAR     36  36  99 SE6       30.16F FOG     WCI  31
MONROE         PTCLDY    37  36  93 S8        30.15S WCI  31
JANESVILLE     CLEAR     37  36  93 SE5       30.17F WCI  34
$$

WIZ051-052-058>065-066-070>072-231400-
SOUTHEAST WISCONSIN

CITY           SKY/WX    TMP DP  RH WIND       PRES   REMARKS
MILWAUKEE      MOCLDY    37  34  89 SW6       30.21R WCI  32
WAUKESHA       CLEAR     36  36 100 S3        30.20F FOG
MILWAUKEE/TIMM CLEAR     34  30  86 S3        30.21S
RACINE         PTCLDY    37  35  92 S5        30.22S FOG     WCI  33
BURLINGTON     CLEAR     27  27 100 CALM      30.20S FOG
KENOSHA        PTCLDY    37  36  96 S5        30.21R FOG     WCI  33
FOND DU LAC    PTCLDY    38  34  85 S9        30.16F WCI  31
SHEBOYGAN      CLEAR     36  35  96 SW3       30.19S FOG
WEST BEND      CLEAR     32  32 100 CALM      30.18S FOG
JUNEAU         PTCLDY    37  34  90 SE6       30.18S FOG     WCI  32
$$

LSZ147-162-231400-
LAKE SUPERIOR

STATION/POSITION TIME  TEMP    WIND        PRES    WAVE
                       AIR SEA DIR/SP/G            HT/PER
                 (UTC) (F)     (DEG/KT/KT) (MB)    (FT/S)
W MID LAKE BUOY  1250   48 46  160/ 10/ 12 1016.2F   2/ 4
DEVILS ISLAND    1300   49     180/  6/  8 1015.9S
PORT WING        1200   49     180/  4/  8 1015.2F
SAXON HARBOR     1200   51     200/  5/ 11 1015.9S
$$

LMZ867-665-643>646-231400-
LAKE MICHIGAN

STATION/POSITION TIME  TEMP    WIND        PRES    WAVE
                       AIR SEA DIR/SP/G            HT/PER
                 (UTC) (F)     (DEG/KT/KT) (MB)    (FT/S)
CHAMBERS ISLAND  1200   46     160/  6/ 11 1021.7F
N MID LAKE BUOY  1250   48 51  210/ 16/ 17 1022.2F   3/ 5
NORTHPORT PIER   1200   44     170/  2/  4 1021.7F
SISTER BAY       1243          180/  9/ 11   N/A
ALGOMA LAKESHORE 1041          230/  9/ 11   N/A
KEWAUNEE LAKESHO 1200   44     180/  8/  9 1021.2F
SHEBOYGAN LAKESH 1300   43 50  200/  9/ 10 1023.2S
PORT WASHINGTON  1200   41     210/  2/  5 1023.4S
ATWATER BUOY     1200   45     180/ 10/ 12 1023.6F
MILWAUKEE LAKESH 1200   42     230/  9/ 10   N/A
S MID LAKE BUOY  1250   51 54  190/ 14/ 16 1023.3F   2/ 4
KENOSHA   LAKESH 1300   41     220/  3/  5 1023.0R
$$

TC  - TEMPERATURE IN CELSIUS
VSB - VISIBILITY IN STATUTE MILES
WCI - WIND CHILL INDEX
HX  - HEAT INDEX




USA.gov is the U.S. government's official web portal to all federal, state and local government web resources and services.